Regional Weather Roundup
Issued by NWS

Home | Current Version | Previous Version | Graphics & Text | Print | Product List | Glossary On
Versions: 1 2 3 4 5 6 7 8 9 10 11 12 13 14 15 16 17 18 19 20 21 22 23 24 25 26 27
000
ASUS45 KCYS 261510
RWRWY

WYOMING REGIONAL WEATHER ROUNDUP
NATIONAL WEATHER SERVICE CHEYENNE WY
900 AM MDT WED APR 26 2017

NOTE:  "FAIR" INDICATES FEW OR NO CLOUDS BELOW 12,000 FEET
WITH NO SIGNIFICANT WEATHER AND/OR OBSTRUCTIONS TO VISIBILITY.

WYZ001-261600-
YELLOWSTONE NATIONAL PARK

CITY           SKY/WX    TMP DP  RH WIND       PRES   REMARKS
LK YELLOWSTONE   N/A     28  26  92 CALM      29.81S
W YELLOWSTONE  NOT AVBL

$$
WYZ002>013-054>058-071-098>099-261600-
NORTHERN WYOMING

CITY           SKY/WX    TMP DP  RH WIND       PRES   REMARKS
JACKSON        LGT SNOW  34  34 100 SW9       29.82S WCI  26
CODY           FAIR      41  35  79 S3        29.76F
GREYBULL       FAIR      41  34  76 CALM      29.78F
WORLAND        FAIR      42  37  82 N7        29.76F
SHERIDAN       CLOUDY    29  26  89 W3        29.80F
BUFFALO        NOT AVBL
GILLETTE       CLOUDY    26  26 100 S6        29.80F WCI  19
HULETT         CLOUDY    27  25  93 CALM      29.84S FOG
NEWCASTLE      FAIR      28  23  80 W5        29.82F WCI  23

$$
WYZ014>020-022>026-101>103-261600-
CENTRAL WYOMING

CITY           SKY/WX    TMP DP  RH WIND       PRES   REMARKS
BIG PINEY      CLOUDY    36  28  73 S6        29.84F WCI  31
PINEDALE       CLOUDY    32  30  93 SE6       29.85S WCI  26
DUBOIS         CLOUDY    34  27  75 N12       29.77S WCI  25
LANDER         PTSUNNY   38  33  82 SE5       29.77F WCI  34
RIVERTON       FAIR      34  33  96 S6        29.78F WCI  29
CASPER         FAIR      41  32  70 SW14      29.79S
DOUGLAS        FAIR      35  30  82 W5        29.80F WCI  31

$$
WYZ021-027>030-104>119-261600-
SOUTHERN WYOMING

CITY           SKY/WX    TMP DP  RH WIND       PRES   REMARKS
EVANSTON       CLOUDY    36  29  75 W12       29.90R WCI  28
KEMMERER       FLURRIES  32  32 100 W14       29.87F WCI  22
FORT BRIDGER   CLOUDY    38  29  70 W21G26    29.91S WCI  28
ROCK SPRINGS   LGT SNOW  36  30  79 W17G25    29.87S WCI  26
DIXON            N/A     35  31  85 CALM      29.92F
RAWLINS        CLOUDY    36  30  79 W18       29.85F WCI  26
SARATOGA       CLOUDY    36  30  80 W13       29.87F WCI  27
LARAMIE        FAIR      36  22  56 S5        29.82S WCI  32
CHEYENNE       FAIR      44  24  45 NW18G26   29.79F
TORRINGTON     FAIR      37  27  67 CALM      29.81F
PINE BLUFFS    FAIR      39  28  65 N10G16    29.81F WCI  32

$$




USA.gov is the U.S. government's official web portal to all federal, state and local government web resources and services.